User: anonymous   Login
Location: Bushey
(51.6333°N, 0.3667°W)
Time: 01:05:09
(UTC+00:00)
Language:

Cosmos 1354 Rocket - Orbit

View from above orbital plane
View from above orbital plane
View from above satellite
View from above satellite

Ground track
Ground track

The orbit data is extracted from the following two-line orbital elements,

1 13149U 82037B   21125.39942800 -.00000019  00000-0  24228-5 0  9998
2 13149  74.0411 173.6538 0012597  24.9303 335.2455 14.35396888 40775
Epoch (UTC): 05 May 2021 09:35:10
Eccentricity: 0.0012597
inclination: 74.0411°
perigee height: 765 km
apogee height: 783 km
right ascension of ascending node: 173.6538°
argument of perigee: 24.9303°
revolutions per day: 14.35396888
mean anomaly at epoch: 335.2455°
orbit number at epoch: 4077

The dashed part of the orbit path shows where the satellite is in the earth's shadow,  

DLR